RH
10 10 10 10 10 10 10 10 11 11 12 13 13 14 15 15 15 15 17 17 17 19 18 17 20 18 15 13 13 15 15 14 14 14 15 16 17 18 19 21 22 23 24 25 26 27 27 23 20 17 17 17 17 17 17 17 17 18 18 19 21 24 26 30 32 34 35 37 41 45 49 51 50 50 49 49 48 48 47 46 44 44 41 38 32 19
10 10 10 11 11 11 11 11 12 12 12 13 14 15 15 15 15 16 17 17 18 20 19 18 20 18 15 13 13 15 15 16 16 17 17 18 18 19 21 23 24 24 25 25 25 25 24 21 19 18 18 18 18 18 19 19 20 20 21 22 23 24 25 29 32 34 36 36 42 49 54 56 55 54 54 53 54 53 52 51 49 47 44 41 36 24
10 9 10 11 11 12 12 13 13 13 14 14 15 15 16 16 16 17 17 17 19 20 20 19 19 18 16 13 13 16 17 18 18 18 19 19 20 22 24 25 24 24 24 24 24 23 22 20 20 20 21 22 23 24 25 26 27 28 29 30 31 31 30 31 32 34 36 40 48 56 59 60 60 59 59 59 59 59 58 56 54 51 48 44 39 29
10 10 10 11 11 12 13 14 15 15 15 15 15 16 17 16 18 20 19 19 21 21 22 21 20 20 17 13 14 17 18 19 19 19 21 22 23 24 26 26 25 26 26 26 25 23 22 22 24 26 28 30 32 34 35 35 34 34 35 36 37 39 40 41 41 43 46 52 58 63 64 64 65 64 64 64 64 64 63 63 60 56 52 48 43 34
10 10 11 11 11 12 13 14 15 16 16 15 16 16 17 17 19 21 21 21 22 22 23 21 21 21 18 14 15 18 19 20 20 19 21 23 25 26 27 28 28 29 29 29 29 28 27 28 30 32 34 38 39 37 37 34 32 33 33 35 37 39 44 49 53 57 59 62 65 66 67 68 68 68 68 69 69 68 69 69 67 63 58 53 47 38
10 10 11 11 12 13 14 15 16 17 17 17 16 16 18 19 19 21 22 23 25 27 27 25 25 24 21 17 16 19 21 21 21 21 23 25 26 28 28 29 30 31 32 32 33 34 35 37 39 41 42 43 40 35 33 31 31 35 37 39 41 43 47 52 57 62 64 65 68 69 71 72 72 73 74 73 72 73 73 73 72 70 65 59 52 43
11 11 12 12 13 14 14 15 16 17 19 19 17 17 19 19 20 22 23 26 29 30 29 28 30 30 26 20 17 20 22 22 24 24 25 27 28 29 30 31 32 33 34 35 37 40 42 44 43 43 44 43 38 32 30 31 33 39 42 46 49 51 54 58 62 66 69 71 73 74 75 76 77 78 77 77 77 78 78 77 76 75 72 66 57 48
11 12 12 13 13 14 14 15 17 18 20 20 18 19 21 20 22 23 25 28 29 30 30 29 30 34 32 22 17 22 24 24 26 27 28 29 30 32 33 34 36 37 38 38 40 42 43 42 41 41 43 40 36 32 31 32 36 41 45 49 51 54 57 61 65 69 74 76 78 81 81 81 82 82 81 80 82 83 83 82 80 78 77 73 65 54
11 12 13 13 13 14 14 16 17 19 21 21 20 21 22 22 23 25 27 28 29 33 35 32 31 34 32 23 19 23 25 27 29 30 31 32 33 34 35 36 39 40 40 39 40 41 42 42 43 45 45 41 37 36 36 38 42 45 47 48 49 51 54 56 62 68 72 74 77 80 84 86 87 85 84 84 84 86 87 85 83 83 81 79 72 61
12 12 13 14 14 14 15 17 18 20 21 22 22 23 23 24 25 26 27 28 32 37 38 34 33 32 28 23 22 23 26 29 31 31 33 33 34 34 35 37 40 40 40 40 40 42 43 44 47 49 46 42 40 40 41 43 45 46 46 46 46 46 47 49 56 62 65 69 72 74 79 85 89 89 88 88 88 89 89 88 87 87 86 84 80 69
12 13 14 14 15 15 16 18 19 20 22 23 23 24 24 25 25 25 27 30 34 36 34 32 34 33 28 24 23 24 27 30 31 33 34 34 33 34 36 38 39 41 41 42 43 44 46 48 51 51 46 43 42 43 44 44 44 43 41 38 36 34 33 36 42 48 54 61 64 67 70 76 84 91 93 92 93 93 92 92 90 90 90 89 87 78
14 14 14 15 16 17 18 20 20 21 22 23 24 25 27 28 26 27 30 33 32 31 33 33 33 35 32 26 24 27 30 32 33 34 32 33 33 34 37 39 41 43 44 45 47 47 49 52 53 49 42 39 39 39 39 38 36 35 34 33 31 27 22 21 25 30 39 46 50 57 64 67 76 88 95 96 96 95 94 95 94 93 94 93 93 88
15 15 15 16 18 19 21 21 21 22 22 24 25 28 31 29 28 29 29 30 29 30 35 35 35 36 32 26 27 30 33 34 34 34 32 33 33 35 38 40 41 43 44 46 47 49 53 53 45 35 28 26 27 29 30 31 35 39 42 44 44 37 26 18 15 17 23 26 32 43 52 57 66 80 93 97 95 94 93 94 95 96 97 96 96 95
17 17 17 19 19 20 21 22 23 24 24 26 27 31 32 29 32 35 30 29 31 33 36 37 38 37 31 27 29 31 34 35 34 34 35 35 36 38 40 41 41 42 44 45 47 51 52 41 26 17 17 19 23 27 33 39 46 50 51 50 49 45 36 28 23 20 20 19 21 26 32 43 57 70 86 94 95 94 92 91 93 94 97 99 98 99
20 19 19 19 19 20 21 22 24 25 26 29 28 31 33 31 34 37 33 34 37 38 40 42 40 35 29 28 29 32 35 36 34 35 36 36 38 40 41 41 42 43 44 46 49 51 42 25 15 16 20 25 30 36 42 47 49 47 44 42 41 40 37 34 32 29 26 23 20 18 21 34 52 66 80 91 96 95 92 90 90 92 96 99 99 100
23 20 19 20 20 21 22 23 24 25 28 30 29 31 34 33 33 35 35 37 41 43 44 42 37 31 29 28 30 34 37 36 35 37 36 37 39 41 42 41 42 45 47 49 49 43 29 16 15 20 24 30 37 42 45 44 41 37 34 32 31 31 32 32 32 31 30 27 23 20 20 29 47 65 77 86 93 94 92 91 91 91 94 97 98 99
24 22 20 22 22 22 24 24 24 26 28 30 32 33 34 34 35 37 37 38 41 43 42 38 35 32 30 31 33 35 36 36 37 39 39 38 39 41 41 41 44 47 47 41 34 26 18 16 20 26 32 39 42 41 37 32 29 27 25 24 24 24 25 26 26 26 26 24 22 19 18 21 34 56 74 84 88 91 91 91 91 92 94 95 96 97
25 24 22 23 23 24 25 25 25 26 28 30 33 34 33 35 38 40 39 38 39 41 39 36 34 33 32 34 35 35 35 36 37 38 38 38 39 41 41 43 47 47 39 29 22 20 20 25 31 37 41 40 35 31 27 24 23 21 19 18 17 18 18 19 19 19 19 17 16 14 13 14 21 40 66 83 88 89 90 90 90 91 96 97 94 95
26 27 25 23 23 24 25 26 26 25 27 30 32 33 35 37 39 41 41 40 41 43 41 38 36 34 34 35 36 35 34 36 37 37 38 39 41 42 43 47 50 44 34 28 27 29 32 37 40 39 36 31 27 25 24 22 19 16 15 14 14 14 15 15 15 14 14 12 11 11 10 10 13 21 42 69 85 89 88 89 89 89 94 98 94 92
27 29 28 25 23 25 26 26 27 27 28 31 33 34 36 38 39 41 42 41 43 45 44 44 42 37 35 36 36 37 37 37 40 41 43 44 44 45 48 52 49 39 33 34 36 38 39 37 34 29 27 26 25 24 21 18 15 12 12 12 12 13 13 13 13 12 11 11 10 10 10 10 10 10 18 43 72 89 90 87 88 90 94 99 97 93
28 30 30 26 23 25 26 26 27 28 31 34 36 37 37 39 41 43 44 42 43 44 44 47 46 38 37 39 38 39 41 42 45 46 47 46 46 50 54 51 43 36 35 36 35 34 31 27 24 23 23 23 21 19 15 12 11 10 10 11 11 12 12 12 12 12 12 12 12 12 12 12 12 11 10 19 43 73 90 89 86 89 94 98 99 97
27 30 31 28 25 25 25 24 25 28 31 34 36 37 37 39 42 45 46 44 45 46 43 47 49 42 39 40 40 42 45 46 48 48 47 47 50 53 50 43 37 33 31 28 25 25 24 23 23 22 21 19 15 12 10 8 8 8 9 10 10 11 13 13 14 13 13 14 14 14 15 14 14 13 12 10 17 41 73 89 89 89 93 95 97 99
26 30 32 28 24 24 23 22 24 26 30 33 35 36 37 40 43 45 47 47 47 47 45 49 55 49 42 41 42 44 46 48 49 48 48 49 48 44 39 34 30 25 22 21 22 24 24 23 21 19 16 13 10 8 8 7 8 8 9 9 9 11 13 15 15 15 15 15 15 16 16 17 17 16 15 14 12 18 41 71 86 89 92 93 95 100
26 29 32 29 24 22 21 21 25 28 31 34 36 37 40 42 44 46 49 50 52 51 48 50 54 51 44 42 44 47 48 49 50 49 49 46 38 32 28 25 23 20 21 23 25 25 23 19 16 14 11 9 7 7 8 8 8 8 9 9 9 11 13 15 15 15 15 15 15 16 16 17 18 18 18 16 14 14 21 45 72 86 90 94 98 101
24 27 31 32 30 28 25 23 27 31 33 35 37 40 43 45 48 51 52 54 56 56 52 50 50 47 44 45 46 47 47 48 47 47 44 37 30 26 25 22 21 22 25 27 26 23 18 14 11 10 8 8 9 9 10 11 11 11 11 11 10 10 11 12 13 13 14 14 14 16 16 17 18 20 20 18 16 16 16 26 53 77 88 94 100 101
24 25 28 32 34 33 29 27 29 33 35 37 39 41 45 48 51 54 57 59 59 57 55 53 49 47 48 49 47 46 48 48 45 44 41 32 24 21 22 23 24 25 26 26 22 17 13 11 10 10 11 12 14 15 16 17 18 18 18 18 17 15 15 14 14 14 14 14 15 16 16 18 21 23 23 21 18 17 17 20 38 67 88 96 100 102
25 24 24 29 33 31 31 32 34 37 39 40 40 41 44 48 50 53 59 62 59 58 60 56 53 53 52 48 46 49 52 49 45 45 40 27 21 21 23 25 24 23 22 19 15 13 11 11 12 13 15 17 18 20 22 23 24 23 21 21 21 21 21 22 23 23 23 22 22 22 21 20 23 28 28 24 20 18 22 25 32 54 80 94 97 99
26 24 22 26 29 30 32 36 39 42 43 43 42 43 46 50 51 52 55 56 57 62 64 58 57 57 50 43 46 51 51 47 46 45 35 24 22 24 26 25 23 21 18 15 13 12 12 14 15 17 19 21 24 26 26 25 25 25 24 24 23 22 24 27 31 34 36 36 35 34 34 30 28 33 35 30 23 21 24 26 28 41 68 88 95 98
26 26 24 27 30 32 35 38 41 43 43 44 46 50 52 53 53 52 51 53 60 67 63 53 51 51 44 42 45 47 46 45 43 36 27 24 25 27 27 24 21 18 15 12 12 13 15 17 20 22 24 26 29 29 25 23 24 25 24 23 24 25 27 29 35 41 46 50 50 48 47 42 37 40 44 38 29 24 25 27 27 35 54 73 83 91
29 30 29 31 32 33 35 38 40 42 45 48 51 54 57 57 55 55 54 55 59 60 53 43 40 41 41 41 41 40 40 39 34 28 27 29 30 29 27 22 19 16 13 13 14 16 19 22 25 28 30 31 31 29 25 22 20 19 17 17 21 26 29 33 40 46 50 54 56 56 56 53 48 50 53 50 41 34 30 30 30 33 41 49 57 71
33 35 33 36 36 33 34 38 41 44 47 49 52 57 60 59 58 58 57 56 56 51 43 38 36 38 40 39 37 35 34 31 29 29 32 35 33 27 21 18 15 13 13 15 18 22 25 28 31 33 33 31 29 26 24 18 13 13 13 14 19 26 32 40 48 53 58 62 62 61 64 64 61 61 64 63 57 50 42 37 36 37 39 41 45 56
35 37 36 41 42 37 35 38 42 45 47 50 56 59 60 61 62 61 58 57 55 46 38 36 36 36 37 36 35 34 33 32 31 30 32 34 29 20 16 16 14 14 16 20 24 28 30 31 33 35 32 27 23 20 19 16 12 12 12 11 15 20 25 33 42 48 60 71 72 68 69 71 71 70 73 75 72 67 60 52 46 42 42 44 50 56
37 39 40 47 50 43 37 40 43 42 45 53 60 61 62 64 64 60 58 58 55 45 35 33 33 35 37 38 36 36 38 38 33 27 26 25 20 15 14 15 16 18 22 27 31 34 34 33 33 31 25 19 15 14 15 16 14 13 12 11 11 15 20 25 32 41 56 72 77 74 70 71 71 72 77 81 83 81 78 73 66 58 50 48 52 59
38 41 43 50 54 47 40 41 42 39 44 54 60 62 66 67 62 56 54 57 54 41 31 31 34 38 40 40 38 39 43 44 35 26 22 19 15 15 15 16 21 26 30 35 38 39 38 34 31 31 28 23 18 13 11 12 12 10 13 12 10 17 27 27 27 36 52 68 77 76 71 70 69 70 75 80 83 84 84 83 82 78 69 58 54 59
39 42 45 49 54 52 47 47 47 45 49 57 63 67 70 68 62 56 54 53 45 34 32 37 41 44 44 43 43 42 42 43 35 24 20 17 16 20 24 27 32 36 39 43 44 42 37 34 41 52 47 30 19 13 8 8 9 6 10 13 11 15 23 21 18 25 38 54 67 71 72 71 68 67 71 76 80 81 81 82 85 88 88 78 66 62
41 44 46 50 54 53 53 56 56 53 56 64 70 71 69 63 57 54 52 45 37 36 44 48 47 49 48 45 43 39 35 37 31 23 21 24 28 37 46 53 57 54 50 50 50 45 40 41 59 76 63 30 12 9 6 5 6 4 6 11 11 10 12 12 13 17 23 35 48 58 66 71 69 68 71 76 80 81 80 82 87 92 98 96 86 77
43 45 48 54 57 57 61 66 63 57 61 69 72 68 61 53 48 46 44 39 38 48 56 54 52 55 51 44 40 33 29 29 23 20 28 39 46 54 58 64 71 67 57 53 53 56 65 76 82 78 56 27 11 10 9 5 6 8 9 9 9 7 7 9 11 14 15 19 26 36 48 61 71 75 77 82 87 87 84 86 92 98 100 101 99 94
46 48 52 59 63 64 70 74 67 62 65 70 73 70 63 52 43 40 44 43 44 52 58 58 58 55 45 40 37 32 37 38 22 14 30 46 51 55 56 53 56 56 52 55 63 68 76 85 81 65 45 26 13 12 16 15 17 20 17 12 9 8 8 10 10 11 12 11 14 21 30 46 66 81 86 89 93 94 90 88 95 101 101 99 100 100
50 53 55 62 67 70 77 78 71 67 70 73 75 73 64 52 43 44 50 50 49 57 62 59 54 47 39 43 49 55 73 81 53 22 27 42 44 46 50 46 43 41 39 47 63 67 56 45 41 38 33 26 16 12 15 18 19 19 15 11 10 10 10 12 11 10 12 12 14 20 26 41 66 87 95 97 98 98 93 89 95 101 101 100 100 100
54 56 59 64 65 63 71 76 68 64 69 74 75 70 58 48 47 54 59 59 60 64 61 52 47 44 46 62 81 88 95 102 83 50 40 48 47 44 46 46 43 38 29 27 37 41 32 20 17 18 17 16 14 10 9 11 10 9 10 9 9 9 9 11 11 11 14 15 15 19 27 45 70 92 100 101 101 100 95 91 95 100 100 100 100 100
56 59 62 65 60 55 63 72 66 63 70 73 69 63 53 49 59 71 75 73 68 60 51 47 48 54 66 84 97 92 81 80 79 64 53 53 53 51 49 46 39 32 26 24 24 21 16 11 10 10 8 8 8 6 5 6 4 5 6 6 5 6 7 8 9 10 13 13 13 17 29 50 77 96 102 102 102 101 98 95 97 100 100 100 100 100
62 66 63 60 58 58 64 68 65 66 72 69 61 59 61 68 81 86 76 66 61 51 42 40 47 67 86 88 79 72 67 64 64 61 57 58 58 52 43 34 26 19 15 15 15 12 8 5 4 5 5 5 5 5 4 4 4 4 4 3 3 4 3 4 7 8 9 10 13 22 38 62 86 99 101 101 101 100 99 99 99 100 100 100 100 99
70 70 62 57 63 70 73 74 73 71 69 65 62 69 78 85 87 77 58 47 43 39 35 38 51 75 90 81 67 65 65 61 60 59 55 51 45 34 22 16 14 13 9 6 6 5 5 5 4 4 4 4 5 4 4 4 3 3 3 3 3 3 3 4 5 4 6 12 19 31 47 71 92 101 100 100 101 100 100 100 100 100 100 100 100 99
71 67 59 60 72 80 79 75 71 69 69 70 76 85 88 82 68 54 42 35 30 31 41 55 66 76 81 78 72 68 62 60 59 50 36 26 19 12 8 7 7 7 6 6 6 5 4 4 4 4 4 4 3 3 3 3 3 3 3 2 2 3 3 4 4 4 10 19 27 37 54 78 96 102 101 100 100 100 100 100 100 100 100 100 100 100
68 64 61 66 73 77 73 69 69 74 77 77 81 87 82 66 47 36 37 45 53 60 69 76 77 76 74 72 66 59 56 56 47 29 16 11 8 5 5 5 5 5 5 4 4 4 4 4 3 3 3 3 3 3 3 3 4 3 3 3 4 4 5 6 7 9 16 26 34 46 67 89 99 101 100 100 100 100 100 100 100 100 100 100 100 100
62 62 64 69 72 71 69 71 76 80 78 76 79 78 64 45 34 34 45 65 80 85 82 80 76 69 62 60 57 48 39 33 23 12 9 8 5 5 5 4 4 5 4 4 4 4 3 3 3 3 3 3 3 4 4 4 5 5 5 4 5 6 9 12 13 15 21 31 42 59 82 97 101 100 101 100 100 100 100 100 100 100 100 100 100 100
65 66 67 71 74 73 72 76 78 75 74 76 74 61 42 30 34 48 64 75 80 79 75 68 58 44 35 37 40 30 17 12 11 8 7 6 5 5 5 4 4 4 3 4 4 4 4 4 4 4 4 4 4 4 4 5 6 8 10 10 10 12 15 17 17 19 25 37 54 76 94 101 100 100 101 100 100 100 100 100 100 100 100 100 100 100
72 72 72 74 77 78 77 76 75 73 75 76 64 44 36 40 48 61 74 76 72 68 58 43 29 19 13 16 19 14 7 7 8 6 4 5 5 5 4 4 5 5 5 5 5 5 6 5 4 5 4 4 4 4 4 5 7 9 12 15 19 20 20 21 23 24 32 50 69 85 96 101 100 100 100 100 100 101 100 100 100 100 100 100 101 100
78 77 77 79 81 80 77 75 73 70 67 61 51 44 50 59 62 65 70 69 61 49 34 19 11 8 7 7 8 8 6 6 5 5 6 6 5 5 6 6 5 6 6 5 5 5 5 5 4 4 4 4 4 4 4 6 8 10 14 18 23 25 25 25 24 28 44 64 75 79 87 97 102 102 101 100 101 101 101 100 100 100 100 101 102 101
79 78 82 84 82 79 74 71 71 64 51 40 41 49 58 63 63 63 63 57 42 24 12 7 5 5 5 6 6 6 6 6 6 6 6 6 6 7 6 6 6 6 5 5 5 4 4 5 6 6 6 6 6 5 5 7 9 12 16 20 25 27 25 22 22 33 55 70 74 77 89 99 101 102 103 102 101 102 102 100 100 100 100 102 102 101
84 86 88 83 75 69 61 55 55 54 46 41 48 60 65 65 63 58 48 33 17 7 4 6 6 6 6 7 7 6 6 6 5 5 5 6 7 7 6 6 5 4 4 4 4 4 4 5 6 7 7 8 8 8 10 11 14 16 19 24 30 29 24 25 32 44 58 67 73 84 97 101 100 101 103 103 102 102 101 101 100 99 100 102 102 100
Wind_Speed
14 14 13 13 13 13 14 14 16 17 18 18 19 20 21 23 25 23 24 26 26 28 29 29 32 35 34 33 33 30 24 20 18 16 17 17 18 20 19 18 16 12 11 13 15 17 19 20 21 22 23 24 25 26 28 29 30 31 33 34 34 35 36 36 37 37 38 39 39 40 40 40 41 41 40 41 41 41 41 42 42 43 43 41 39 38
14 15 15 14 14 14 14 15 16 17 18 19 20 21 23 25 25 25 26 27 26 29 31 32 35 35 34 34 29 21 18 20 20 18 18 19 18 17 14 11 10 9 10 12 13 15 18 18 19 21 22 23 24 25 27 28 30 31 32 33 34 35 36 36 37 38 38 39 40 40 40 40 40 41 40 41 42 41 41 41 42 43 43 42 40 38
16 16 15 14 14 15 15 16 16 17 18 19 21 22 24 25 26 26 26 27 27 30 34 35 37 38 34 28 19 17 22 23 20 20 20 19 16 12 8 7 7 7 8 10 12 14 16 17 18 20 21 23 24 25 27 28 30 31 32 32 33 35 35 36 37 37 38 39 40 40 40 40 40 41 40 40 41 42 42 41 41 42 43 43 41 39
17 16 16 16 16 17 17 17 17 18 19 20 22 23 25 26 25 25 27 29 28 31 35 35 40 38 22 16 21 23 24 21 21 22 19 16 13 9 8 7 7 8 9 11 12 15 17 19 20 21 23 24 25 26 27 29 30 31 31 32 33 35 35 35 36 37 38 39 40 40 40 40 40 41 41 40 41 41 41 41 41 42 42 43 42 40
17 18 18 18 18 18 18 18 17 19 20 21 22 23 26 25 24 26 29 31 30 32 31 31 37 24 3 13 30 24 19 21 20 17 14 12 10 8 9 9 9 10 12 13 14 16 19 21 23 24 25 27 27 28 29 30 30 31 31 32 33 34 35 36 36 37 38 39 40 40 40 40 40 41 41 41 41 41 41 41 41 42 42 43 43 41
18 18 18 17 17 18 18 19 19 20 21 23 23 23 24 24 25 27 28 31 29 24 22 24 24 8 3 20 29 17 17 18 14 13 11 9 8 9 11 10 11 14 15 16 17 18 20 22 24 25 26 27 28 28 29 30 31 31 32 33 34 35 35 36 36 37 39 40 40 40 40 40 41 41 41 41 42 42 42 42 42 42 43 43 43 42
18 17 17 17 18 19 20 21 20 20 21 23 24 23 23 25 26 27 28 28 23 18 23 26 15 11 18 23 18 15 16 12 12 14 11 9 9 9 10 12 15 17 19 20 20 20 21 22 24 25 27 29 30 30 31 32 32 33 34 35 35 36 37 37 37 38 39 40 40 40 40 40 41 42 42 42 42 41 42 42 42 43 43 43 43 43
17 17 18 19 20 21 21 21 20 20 21 23 25 24 24 26 26 27 28 27 27 29 32 28 15 14 18 15 14 16 12 10 15 14 10 9 7 5 9 13 16 18 20 21 21 22 23 25 27 28 29 30 32 33 34 35 35 36 36 37 38 38 39 39 39 40 40 41 41 41 41 41 41 42 42 43 42 41 41 41 42 42 43 43 43 43
19 19 19 20 21 21 21 21 20 20 21 23 25 24 25 27 27 28 29 28 31 28 19 16 12 9 9 8 15 15 10 15 18 12 9 6 2 4 8 12 14 15 19 21 23 26 28 29 30 30 31 31 33 35 36 37 38 39 39 40 40 40 41 41 41 41 41 42 42 42 42 42 42 42 42 43 42 42 41 41 42 42 42 43 42 42
18 18 18 19 20 20 20 20 20 20 21 23 24 24 25 26 27 28 28 27 25 15 8 9 6 4 6 6 11 14 14 18 16 10 7 3 2 6 10 12 13 15 19 23 27 30 31 32 32 32 32 33 35 37 38 39 40 40 41 41 42 42 42 43 43 43 43 43 44 43 43 43 43 44 43 43 42 42 41 41 42 42 42 42 42 42
17 17 18 18 19 19 19 20 20 20 20 21 22 24 25 25 26 26 24 20 13 5 3 4 4 2 4 5 10 14 15 15 13 8 5 4 7 10 13 14 15 17 21 24 28 31 32 32 32 33 34 35 37 38 38 38 39 39 39 40 41 41 42 44 44 45 45 45 45 45 45 44 45 45 44 44 43 42 41 41 42 43 43 43 43 42
16 16 18 19 18 18 18 18 18 17 18 18 19 21 21 19 19 17 13 7 4 2 1 2 1 2 5 11 16 13 12 16 13 7 7 8 11 14 15 15 17 21 24 27 29 31 31 32 32 34 35 36 36 35 35 35 35 36 38 39 40 40 41 43 44 45 46 47 47 47 47 46 46 46 45 44 43 42 41 41 42 43 43 43 43 42
17 16 15 14 13 13 13 13 14 15 15 15 15 16 14 11 9 6 4 1 3 2 2 2 1 5 14 19 14 12 15 14 7 7 9 10 14 16 16 18 22 26 29 31 32 31 31 33 34 35 34 33 32 32 32 34 36 38 40 41 42 42 42 42 43 44 45 46 47 48 48 48 48 47 45 44 43 42 42 42 42 43 43 44 44 43
12 12 11 10 10 9 9 11 13 14 15 16 16 14 9 5 5 5 4 3 4 3 2 4 6 8 13 11 6 13 14 5 6 7 9 12 16 17 18 22 27 31 33 34 33 31 32 33 34 33 32 31 31 32 35 37 40 41 42 43 44 44 44 44 45 45 46 47 47 48 48 49 50 48 46 44 42 41 41 42 42 43 43 43 44 44
7 9 9 10 9 9 11 14 15 16 18 17 15 11 8 6 5 5 4 4 6 7 7 8 6 6 7 6 10 16 8 7 7 10 12 16 17 17 21 28 32 33 33 32 30 30 31 33 32 31 31 32 34 36 38 40 41 42 43 44 45 46 46 46 47 48 49 49 49 49 49 49 50 50 48 45 42 41 41 41 42 42 42 43 43 44
7 7 8 8 10 13 17 18 17 16 15 12 10 8 8 9 8 9 11 12 13 11 7 8 9 11 14 15 16 13 11 10 11 12 14 17 18 19 26 33 37 34 31 30 29 30 32 31 31 32 34 36 38 40 41 42 43 44 45 45 46 47 48 49 50 51 51 51 51 50 50 49 49 50 49 47 44 41 41 41 42 41 42 43 44 44
6 7 9 12 15 17 16 14 14 14 12 11 12 11 12 13 11 12 14 13 12 9 5 6 9 15 19 16 10 13 14 12 12 13 15 20 22 25 32 38 38 33 30 30 30 32 33 33 34 36 39 41 43 44 45 45 46 47 48 49 49 50 51 52 53 53 54 54 53 52 51 50 49 50 50 50 48 44 42 42 42 41 43 44 44 44
10 13 15 15 15 14 12 13 15 15 15 14 14 14 14 12 9 7 7 6 7 7 5 5 10 16 15 7 8 14 16 16 17 18 23 27 29 31 36 39 34 30 31 32 33 35 36 37 40 42 44 45 46 47 48 49 50 51 52 52 52 53 53 54 54 55 55 54 53 51 50 49 49 49 50 50 50 48 46 45 43 42 43 44 45 45
14 14 14 13 12 12 14 16 17 16 15 15 15 16 13 9 6 4 4 5 5 5 4 4 8 15 15 8 9 15 18 20 23 26 28 30 32 35 39 36 31 31 34 35 37 38 40 42 44 46 47 48 49 50 52 53 54 55 55 54 54 53 53 53 53 52 52 51 49 47 46 45 46 47 48 49 49 50 49 48 45 43 42 44 45 44
14 11 9 12 14 16 18 17 16 16 16 16 16 16 13 11 10 8 8 6 4 6 7 3 4 10 13 10 11 15 18 22 25 26 28 31 35 38 37 33 32 35 37 39 41 42 43 45 46 48 49 51 53 55 56 57 58 57 56 55 54 53 52 50 49 48 47 45 44 43 42 41 41 42 44 46 47 48 49 48 47 44 42 43 43 43
15 11 10 16 19 19 18 17 17 19 19 18 17 16 14 13 11 10 12 13 10 7 5 4 5 8 9 9 15 19 20 22 23 27 32 35 36 37 33 32 35 38 40 42 43 45 46 47 49 51 53 55 57 59 60 60 59 57 56 54 52 51 49 47 45 43 42 41 41 41 41 41 40 40 40 42 43 45 46 47 47 45 43 43 42 42
13 12 15 20 22 20 19 19 20 20 18 17 15 13 13 12 11 9 8 10 13 11 8 8 8 13 19 22 22 19 15 18 26 32 35 34 32 32 32 34 38 40 42 44 45 47 49 51 53 55 57 59 60 61 61 59 56 54 52 50 49 47 44 43 42 41 41 41 42 43 43 44 43 43 41 40 40 40 41 43 46 46 45 45 43 42
14 15 18 21 21 20 20 18 16 13 12 11 11 11 12 13 12 9 7 8 10 13 16 13 8 18 30 25 13 11 16 24 31 32 31 30 29 31 35 38 40 42 44 46 48 51 53 55 57 58 60 61 60 58 55 52 50 49 48 47 45 43 42 41 41 41 42 43 43 44 45 46 46 46 45 42 40 38 37 39 42 45 47 47 45 42
15 14 17 21 22 20 17 13 8 7 8 9 12 15 15 16 16 14 16 17 14 15 17 13 8 13 18 11 7 16 27 30 31 30 28 29 31 35 40 42 43 45 47 50 53 55 57 58 59 59 59 56 54 51 49 48 47 46 46 46 44 43 42 42 42 42 43 44 45 45 46 47 47 47 46 44 41 39 36 36 39 43 46 47 45 42
14 14 15 17 15 12 10 8 7 9 15 17 19 20 19 20 20 18 19 19 16 15 14 11 10 8 8 14 22 29 32 32 32 30 28 31 38 42 44 45 47 49 52 54 56 58 59 58 57 54 52 50 48 48 47 47 47 46 45 45 45 44 44 45 45 45 46 46 46 47 48 48 48 48 47 45 42 40 37 36 36 39 43 45 44 43
16 16 16 13 7 5 7 10 12 17 23 24 23 23 24 24 22 20 17 13 11 12 12 16 21 22 22 29 33 33 32 35 35 31 30 37 44 46 47 49 51 54 56 58 59 59 57 54 51 49 48 48 48 48 48 48 48 47 47 46 47 46 46 48 49 50 50 50 49 49 49 49 49 48 47 45 43 41 38 36 36 37 40 43 43 43
16 18 19 17 14 13 15 18 21 23 25 25 23 21 20 20 20 20 17 16 17 18 18 23 28 33 35 36 35 33 34 36 36 33 36 45 49 49 52 54 55 58 59 60 59 57 54 50 48 48 49 49 49 49 50 50 51 51 50 50 50 50 49 50 51 53 54 54 53 52 51 50 48 47 45 44 42 40 39 37 36 37 39 41 42 43
17 21 21 20 21 20 19 21 22 22 22 21 19 17 17 19 19 19 19 19 19 18 18 20 24 31 38 38 35 34 36 37 37 38 44 51 52 53 55 57 59 60 60 59 57 53 50 49 49 50 50 50 50 51 51 51 52 53 52 52 52 52 52 51 52 54 54 55 55 53 51 49 47 45 44 42 40 39 38 36 37 38 39 40 41 42
19 21 21 21 23 20 19 20 19 18 17 17 18 19 20 18 15 15 15 14 14 16 19 25 29 33 38 38 36 36 37 38 40 45 51 54 54 56 59 60 61 61 59 57 53 50 49 50 51 52 52 51 51 52 52 51 51 51 51 51 51 51 51 51 50 50 50 51 51 50 47 46 45 43 42 41 40 39 37 36 37 38 39 39 40 40
17 19 21 22 23 22 21 19 16 15 17 20 21 19 14 10 8 11 12 12 15 20 25 31 35 37 39 40 39 38 38 41 47 52 55 55 56 59 61 61 62 60 57 53 51 51 52 52 53 53 52 52 51 51 52 51 50 50 50 51 51 51 51 50 49 48 47 48 48 46 43 42 41 41 40 40 41 39 38 38 38 38 38 39 39 39
14 18 19 20 24 25 20 18 18 20 23 23 17 11 7 7 9 10 12 15 20 26 30 33 38 41 42 40 38 39 43 50 54 56 57 57 58 60 61 61 60 56 53 52 53 54 54 53 53 52 51 50 50 51 51 50 50 51 51 52 52 50 50 50 50 50 50 51 51 47 42 41 40 39 39 40 41 41 41 40 40 40 39 38 39 39
14 17 17 18 22 24 21 20 22 24 25 18 8 6 6 10 12 13 14 17 24 31 35 35 39 42 41 38 40 47 53 56 56 58 60 61 61 61 60 58 56 53 53 55 56 55 54 52 51 50 49 49 49 50 50 51 51 52 53 53 52 50 49 49 50 51 50 51 53 48 43 42 41 39 39 39 40 41 42 42 43 42 40 39 39 39
14 15 17 16 17 21 23 23 24 25 18 6 1 5 10 13 16 18 19 20 24 30 35 38 40 38 36 39 48 56 59 59 60 61 61 62 62 60 56 54 54 55 56 57 57 55 52 50 49 48 48 48 49 50 50 51 52 52 52 53 51 50 49 49 50 51 50 51 52 50 45 43 42 41 39 39 40 41 42 42 43 44 43 42 40 39
14 14 16 15 14 20 25 25 24 17 5 2 3 10 13 15 19 24 26 26 26 31 36 36 33 31 35 45 54 59 61 64 64 63 62 61 58 54 53 54 55 57 58 57 56 54 51 50 49 49 49 50 51 50 50 51 52 52 52 52 51 49 49 50 51 51 51 51 52 51 48 45 44 44 42 42 42 44 44 44 44 44 44 44 42 41
14 15 16 15 16 21 24 21 14 5 2 7 13 14 13 14 19 27 32 29 30 35 33 24 24 33 45 53 56 59 63 67 66 64 61 58 54 54 57 59 59 60 59 57 55 53 52 51 50 51 53 54 53 52 51 51 51 52 52 52 51 50 50 51 52 52 52 51 52 53 52 51 49 48 47 46 46 47 48 48 48 46 44 44 44 43
15 15 16 18 18 17 15 12 7 6 12 15 12 11 13 16 23 31 35 35 36 30 20 19 33 48 55 57 59 62 64 68 69 65 58 55 56 58 60 61 60 59 58 56 53 53 52 52 52 54 56 56 55 53 51 51 52 54 53 52 51 51 51 52 53 53 53 53 52 53 54 54 54 52 51 50 49 49 49 49 49 47 43 42 43 43
15 16 17 16 13 11 12 13 13 12 11 8 7 13 20 26 31 34 38 45 37 18 15 33 52 58 60 62 63 63 64 69 73 67 58 57 59 60 59 58 55 54 54 54 54 53 52 52 52 55 57 58 56 55 55 55 55 53 52 52 53 54 54 54 55 55 54 54 54 54 53 54 54 53 52 51 50 49 47 47 48 45 40 39 41 42
16 17 15 12 11 12 13 13 11 7 2 2 7 16 22 29 33 36 41 42 26 14 29 52 60 60 63 64 64 65 64 67 71 69 62 60 61 59 58 57 55 54 54 53 52 51 50 50 53 56 59 59 58 59 61 59 54 51 52 55 57 58 58 58 58 57 57 56 55 55 55 54 53 52 51 50 49 48 47 46 45 41 38 37 39 40
17 15 13 11 11 12 12 8 5 3 3 6 13 19 24 30 37 39 35 27 21 30 49 60 60 61 63 61 61 61 56 57 66 70 65 63 62 59 58 58 57 57 56 52 49 48 51 54 56 58 60 62 61 61 61 59 55 55 58 60 60 60 60 60 61 60 59 58 57 56 57 55 53 51 49 48 47 46 45 43 41 39 37 37 38 38
16 14 13 11 11 13 13 9 8 7 9 13 19 23 29 36 40 33 21 22 39 54 59 58 58 61 60 56 55 52 49 53 65 69 65 62 61 59 58 57 57 57 58 55 52 53 55 58 59 60 61 62 63 63 61 60 60 61 62 62 62 62 62 62 63 62 60 59 57 57 56 55 53 51 48 47 45 44 42 40 38 37 37 38 39 38
13 13 12 10 12 15 13 12 13 11 12 17 21 26 35 40 37 25 21 37 56 61 59 58 58 57 54 51 49 51 55 59 62 63 61 60 59 58 56 56 57 58 58 58 57 58 59 58 59 60 61 62 63 62 62 62 62 62 64 64 64 64 63 63 63 62 60 59 57 56 55 53 51 49 48 46 44 42 40 37 35 36 38 40 40 38
12 13 11 12 15 15 13 15 15 9 11 19 25 32 39 38 30 29 40 52 56 56 59 60 55 51 49 50 53 57 60 60 59 59 59 58 58 58 58 58 59 60 60 59 59 60 60 59 59 60 60 61 62 63 63 63 64 64 65 65 65 64 63 63 62 61 60 57 55 54 53 51 49 47 46 44 42 40 38 36 35 36 39 41 41 38
12 11 10 14 17 14 12 12 9 9 18 29 34 38 39 34 32 41 53 58 56 56 58 56 53 50 49 53 57 59 59 59 59 58 59 59 59 59 59 60 60 60 61 60 60 60 60 61 60 60 61 62 63 64 64 65 65 65 65 66 65 64 63 62 61 60 59 56 53 51 50 49 46 43 42 40 38 37 36 35 35 37 39 41 40 38
12 11 11 14 14 12 12 12 10 16 26 32 36 40 40 38 43 50 54 57 59 58 55 54 54 52 50 53 56 57 57 58 58 58 60 60 59 60 60 60 60 61 61 61 61 61 61 61 62 62 62 63 64 65 65 65 66 66 66 66 65 64 64 63 62 61 59 55 52 50 49 47 44 41 38 36 35 34 34 35 36 38 40 41 40 38
8 10 12 12 11 14 18 19 19 25 31 35 40 43 43 46 51 53 52 54 54 52 52 53 53 52 52 53 54 55 56 56 56 58 60 59 59 60 60 60 60 61 61 60 61 61 62 62 63 63 63 64 64 65 65 65 66 66 66 66 65 65 65 65 63 61 59 55 51 48 47 45 43 40 36 34 33 32 32 33 36 38 39 40 39 38
6 7 11 14 18 20 21 20 25 33 39 42 44 45 48 53 55 55 54 52 50 49 50 51 51 52 53 51 52 53 54 54 56 58 58 58 60 60 59 60 60 60 61 61 62 63 64 64 65 65 65 65 65 65 66 65 65 65 65 65 65 65 65 65 63 61 59 54 49 47 45 44 42 40 37 34 32 31 31 33 35 37 38 38 38 37
8 11 15 20 25 27 27 28 35 42 45 47 48 51 55 57 57 55 54 52 51 51 51 51 52 54 53 51 50 52 53 55 56 57 58 59 60 59 60 60 60 61 62 63 64 65 66 66 67 67 67 67 66 66 66 65 65 64 64 64 64 65 65 65 63 61 59 54 49 46 45 43 42 40 38 36 33 31 31 32 34 36 37 37 36 36
14 18 23 28 30 33 35 38 44 48 49 50 52 56 58 59 58 56 53 52 52 52 52 53 53 53 53 51 50 52 54 55 55 57 58 59 59 60 61 62 62 64 64 65 66 67 67 67 68 68 67 67 66 66 65 65 64 64 63 62 63 64 65 64 63 62 59 54 49 46 45 44 43 41 39 37 35 33 32 33 35 36 36 36 37 37
19 23 29 33 36 39 41 45 50 54 54 53 55 57 57 57 57 56 54 53 53 53 53 53 51 51 51 51 51 53 55 56 57 58 59 60 61 62 63 64 65 66 65 66 66 66 66 67 67 67 67 67 66 66 66 65 65 64 62 61 62 64 65 64 63 62 58 53 49 48 47 46 44 42 39 38 37 36 35 35 36 36 35 35 35 36
23 28 32 37 42 44 45 47 49 52 55 58 58 57 56 55 55 55 54 53 52 52 53 52 51 51 51 51 53 56 57 58 59 60 61 62 63 64 64 65 65 65 66 66 66 67 67 67 67 67 67 67 66 66 66 65 65 64 62 60 61 63 64 64 62 60 57 53 50 49 48 47 44 42 39 37 37 38 38 37 37 36 34 33 33 33
26 31 36 40 44 46 47 48 47 49 54 57 56 54 53 52 52 52 52 51 51 51 51 52 53 54 53 54 55 57 59 60 61 62 63 64 63 64 65 65 66 67 68 67 68 69 68 68 67 67 67 66 66 66 66 66 65 64 62 61 62 63 63 62 60 57 55 53 50 48 47 46 44 42 41 39 37 37 38 38 38 36 34 32 32 31
Wind_Direction
288 289 289 291 289 287 286 285 282 283 286 289 290 292 294 295 299 305 302 301 304 302 303 307 305 308 315 319 321 318 318 326 326 321 312 303 298 295 288 279 268 256 249 252 263 272 277 283 290 296 300 302 305 308 309 311 311 310 308 309 309 308 308 309 310 311 311 312 313 314 316 316 316 316 317 317 317 318 318 320 321 321 322 322 321 318
294 293 295 293 289 290 289 289 287 286 287 289 290 292 293 295 299 302 300 299 302 301 304 308 307 308 315 320 321 320 326 331 329 328 320 309 306 301 287 267 255 250 258 267 274 277 282 290 297 301 304 307 309 311 312 313 311 310 310 310 309 307 307 307 307 308 309 310 312 313 315 315 315 315 315 315 315 316 317 318 320 320 321 321 321 317
297 297 296 293 292 294 293 293 291 289 289 289 290 291 292 297 301 301 299 300 302 302 306 309 307 309 317 323 325 325 327 328 329 328 317 310 309 299 270 246 252 268 279 281 281 284 291 298 303 308 312 314 315 316 315 313 311 311 311 311 310 308 308 307 307 307 308 309 311 313 314 314 313 313 313 314 313 314 316 317 318 319 319 320 320 317
297 297 296 295 295 295 294 294 293 291 291 290 290 290 291 296 300 298 298 301 301 302 307 309 309 313 327 337 330 328 328 329 329 324 312 306 309 292 258 250 269 292 303 301 297 296 298 302 307 311 315 317 319 319 316 313 312 312 312 311 310 309 309 308 308 309 308 309 311 312 313 313 313 312 312 312 311 312 314 316 317 317 318 318 318 317
294 295 296 295 295 295 295 294 294 293 292 291 292 290 291 295 295 295 298 301 302 303 306 311 315 318 47 341 328 328 330 332 333 329 316 307 304 284 264 263 284 306 315 315 309 304 303 305 308 310 314 316 318 318 316 314 314 313 313 312 310 309 309 310 310 310 310 310 312 312 313 312 312 311 310 310 310 312 313 314 315 316 317 317 318 317
292 293 295 295 295 296 294 294 295 294 291 292 292 290 292 294 295 297 299 304 307 306 305 317 324 309 222 323 327 332 336 337 344 345 335 324 308 282 272 274 292 307 314 316 314 312 311 311 311 311 311 312 313 315 313 313 314 313 312 311 310 310 310 311 311 311 310 311 311 312 312 311 311 310 309 308 309 311 312 314 315 316 316 317 317 317
293 294 296 296 296 295 294 294 295 294 291 290 291 294 294 295 297 299 300 304 306 296 298 309 310 273 294 320 333 339 339 340 347 347 342 343 331 296 285 291 301 308 313 316 316 314 311 308 307 306 307 308 310 312 312 312 313 311 310 309 309 310 311 311 311 310 310 309 309 309 309 309 309 308 308 307 308 310 311 313 314 315 315 316 316 316
295 297 296 296 296 294 294 295 295 292 288 286 292 296 295 297 299 299 301 301 298 296 300 305 293 271 293 323 340 339 343 341 342 347 345 350 348 307 303 307 310 315 315 313 308 304 304 305 306 307 309 311 313 313 314 314 313 312 311 311 311 312 311 310 309 308 307 306 306 306 306 307 307 306 306 306 307 308 310 311 312 313 314 314 315 314
297 296 296 296 294 294 295 295 293 291 287 288 295 297 297 300 300 299 300 298 297 300 304 307 298 266 268 320 337 334 343 346 347 349 339 350 15 301 300 299 303 307 303 298 296 300 306 309 310 311 312 313 314 315 315 315 314 314 314 314 314 314 313 310 308 305 304 303 303 304 304 304 304 304 304 304 304 306 307 308 309 310 311 312 313 313
297 296 296 295 294 295 296 295 294 293 291 293 298 299 300 301 301 300 298 295 296 295 289 294 284 249 271 306 330 327 334 343 349 351 329 308 270 276 270 272 279 282 284 288 295 303 308 310 310 310 312 314 315 315 314 314 314 314 315 316 316 315 314 312 308 305 303 302 301 302 302 302 301 301 302 302 302 303 304 306 307 308 309 310 311 311
298 297 296 295 295 296 296 294 296 296 297 300 301 303 306 306 305 301 293 292 292 271 270 278 218 217 289 299 318 323 326 328 333 336 307 259 256 256 256 264 268 272 280 288 296 302 306 306 308 310 312 314 314 313 312 313 313 314 315 316 316 316 314 312 310 307 305 303 301 301 300 300 299 299 300 300 301 301 302 304 304 305 306 308 309 309
301 299 298 298 296 297 297 296 300 302 304 305 305 310 313 312 309 298 285 283 266 247 85 94 161 193 248 291 312 320 316 313 310 286 249 242 246 250 257 267 275 285 292 296 301 304 305 305 308 310 312 311 311 311 312 313 314 314 315 314 314 314 313 311 310 309 307 305 304 302 300 298 298 297 298 298 299 300 301 301 302 303 303 305 306 306
303 301 300 301 301 302 302 304 309 311 312 310 310 316 317 313 309 289 265 242 253 265 116 105 317 262 271 289 307 324 319 309 278 234 241 253 256 261 270 282 294 303 306 306 307 306 306 308 310 311 310 310 310 312 313 314 315 315 315 314 313 312 310 309 308 308 307 306 305 302 300 298 297 296 296 296 297 298 299 299 299 300 301 302 302 303
309 310 308 309 312 312 311 315 316 312 310 308 306 308 308 310 312 294 292 292 275 256 227 280 293 281 284 284 296 322 320 277 214 237 268 278 274 278 291 301 309 313 312 309 306 305 308 311 312 312 311 313 314 315 316 316 316 316 316 314 313 311 308 307 306 306 305 304 303 301 299 298 296 294 293 292 294 295 296 297 297 298 299 299 299 300
307 305 308 314 315 313 312 313 311 308 308 304 300 298 287 274 274 286 313 313 300 299 279 277 269 256 274 267 286 305 288 217 254 284 293 289 279 287 304 314 318 317 312 306 302 304 309 312 312 312 314 315 316 317 317 317 316 315 314 313 311 309 308 306 305 304 303 302 301 300 298 295 294 292 289 288 289 291 292 294 295 296 298 298 297 298
296 288 302 311 305 304 306 307 309 311 309 302 303 300 279 270 263 268 284 286 294 304 277 246 247 260 281 289 287 274 231 236 284 300 297 286 277 291 307 316 320 318 312 307 306 307 310 311 311 312 314 316 317 317 317 316 315 313 312 310 308 307 305 304 303 302 301 300 300 299 297 294 292 290 288 285 284 285 288 291 293 296 298 297 297 296
288 282 299 302 300 301 303 306 311 311 303 295 297 292 283 285 276 267 279 285 285 291 264 238 259 278 294 300 264 219 219 250 285 301 298 288 286 296 307 314 317 317 316 315 314 314 313 314 314 315 317 318 318 317 316 315 313 311 310 308 306 304 302 301 301 300 300 300 300 300 298 295 292 289 287 285 283 282 283 286 290 294 297 298 297 297
294 295 300 302 302 302 305 307 308 306 300 293 288 289 293 293 278 257 274 292 274 269 262 245 267 283 292 286 210 219 239 255 273 290 296 295 293 298 306 312 315 319 321 321 320 319 318 318 319 318 318 318 317 316 314 313 312 310 309 307 305 304 302 302 301 301 301 302 303 302 301 298 295 291 289 286 285 283 282 283 286 291 295 297 298 298
306 304 304 306 306 306 309 308 308 307 302 296 290 292 294 284 267 235 248 292 287 279 280 230 251 276 277 256 233 245 256 264 275 287 293 295 297 302 309 313 316 321 322 321 320 319 319 319 318 317 316 316 314 313 313 312 311 310 308 307 306 305 304 304 304 305 306 306 307 307 306 303 299 295 292 289 287 286 285 284 284 286 291 294 296 297
310 303 295 302 306 308 309 307 305 304 301 299 295 294 291 277 268 250 243 265 279 287 294 258 230 272 279 280 270 265 274 284 289 294 297 300 304 309 314 316 320 324 323 321 320 319 318 318 317 316 315 314 314 313 313 312 311 310 309 308 308 308 308 309 309 310 311 311 312 313 312 310 306 302 296 292 288 287 286 285 283 283 286 289 292 295
307 294 280 296 305 305 305 304 301 299 298 296 291 291 291 280 272 266 259 258 259 276 300 284 270 273 269 285 295 288 287 291 298 304 306 308 311 315 318 320 323 324 322 320 319 318 319 318 317 316 315 314 314 313 312 311 311 311 311 311 310 310 310 310 310 311 312 314 315 316 317 316 315 312 306 299 293 289 288 287 284 282 282 286 290 293
305 292 282 292 301 302 303 303 300 297 294 290 287 289 290 282 276 279 271 254 247 251 267 279 290 284 280 293 302 293 284 296 307 309 310 312 316 318 319 322 322 321 319 319 319 319 319 317 316 316 315 315 314 312 312 312 312 313 313 313 312 311 310 310 310 311 312 314 315 316 316 316 316 315 313 308 302 295 290 288 287 283 281 284 287 290
306 295 286 291 300 304 306 305 300 295 290 288 292 295 295 290 280 270 272 271 253 252 264 271 273 281 289 299 302 284 293 308 310 310 313 317 320 322 322 321 320 319 319 319 319 319 318 317 317 316 315 314 313 312 312 312 313 314 314 314 313 311 309 309 309 310 311 312 312 313 313 313 312 312 311 311 308 303 295 289 286 284 281 282 284 287
308 297 290 296 305 309 312 312 304 295 296 300 303 302 299 295 290 280 277 281 273 258 262 269 261 275 293 305 301 305 312 313 312 315 318 321 325 326 324 322 321 321 320 320 320 319 318 317 316 314 313 312 312 312 313 314 316 317 317 316 314 310 308 307 307 307 308 309 309 309 309 309 308 308 308 308 307 305 299 291 286 283 281 281 282 284
303 293 293 302 312 319 324 327 323 310 308 307 305 304 301 298 297 292 284 280 272 259 253 256 260 265 290 299 307 318 318 313 314 318 321 325 328 327 324 322 322 321 320 320 319 318 317 315 314 314 313 313 314 315 316 317 318 318 318 316 314 311 308 306 306 305 305 305 306 306 306 305 304 304 304 304 303 302 298 293 288 284 281 281 280 282
297 291 292 294 294 298 307 308 307 306 306 306 305 305 304 302 298 294 288 273 261 261 244 242 262 278 289 300 314 323 317 312 318 320 321 327 328 327 324 324 323 321 320 320 318 317 316 316 316 316 316 317 317 318 318 319 319 319 318 317 315 312 310 308 306 304 304 303 303 304 303 302 301 300 299 299 300 299 297 293 289 285 283 281 280 281
299 298 300 293 280 283 293 295 296 299 300 301 304 306 303 299 294 291 283 264 265 277 266 261 279 294 302 313 326 325 315 314 319 321 323 327 328 326 325 324 323 321 320 319 318 317 318 318 318 318 317 317 317 318 320 320 321 321 320 319 317 315 312 310 308 306 304 303 302 302 301 299 298 296 295 295 295 296 295 293 289 286 284 283 282 282
304 304 307 303 296 298 301 301 300 299 297 299 304 305 299 292 286 280 275 276 285 285 276 286 303 306 311 324 329 319 315 318 321 323 324 326 327 326 325 323 322 320 319 319 318 319 319 319 318 316 316 316 318 320 321 322 322 321 320 318 316 314 313 311 309 307 305 303 302 301 299 297 295 293 291 290 291 292 293 292 290 287 285 284 284 284
308 305 308 309 307 309 311 310 308 303 303 307 307 302 297 290 284 280 281 294 299 283 286 309 315 309 315 327 324 317 321 323 323 324 323 324 326 326 324 322 320 319 318 317 317 318 319 318 317 316 317 319 320 321 320 320 320 318 316 316 315 314 314 313 311 309 307 306 305 304 301 296 292 291 289 288 287 288 288 289 288 287 286 285 285 285
307 303 310 312 309 313 317 317 316 314 314 314 309 303 298 289 286 289 293 303 304 301 311 321 319 315 322 325 321 322 327 325 322 322 321 324 326 324 321 319 318 317 316 317 318 319 318 317 316 316 317 319 320 318 317 317 317 317 318 319 320 320 320 320 319 317 315 314 313 310 305 298 293 291 288 286 285 284 285 285 284 285 286 286 286 286
304 302 311 314 310 315 323 324 322 319 317 314 306 290 288 304 310 307 305 309 315 319 323 324 321 320 322 322 322 326 326 322 320 321 321 323 324 322 320 318 317 317 317 318 319 318 317 316 315 315 316 317 317 316 317 318 320 322 323 324 323 323 324 324 324 323 321 319 319 316 309 301 297 293 290 287 285 284 283 282 282 283 284 285 286 286
311 308 314 318 312 314 323 324 321 318 315 312 294 257 289 324 328 323 319 320 324 327 327 325 322 319 321 323 323 323 322 321 320 320 322 324 324 322 320 318 317 318 318 319 318 317 316 315 314 314 315 315 316 318 321 323 324 324 325 324 323 323 325 326 324 323 321 318 318 317 310 303 298 294 290 288 287 285 283 282 281 281 281 283 283 283
319 314 317 319 310 310 318 322 320 318 314 310 232 283 308 323 325 324 322 318 321 327 326 321 317 318 324 326 323 321 321 321 321 321 323 325 324 320 318 318 319 319 318 317 317 316 315 313 312 313 314 316 319 321 323 325 324 323 322 321 321 323 324 324 322 321 319 316 314 313 309 304 299 294 290 288 287 286 285 284 282 280 279 279 280 281
321 318 319 318 303 305 316 322 321 317 305 167 280 293 305 317 324 327 325 320 321 323 321 316 316 321 324 321 320 321 320 320 321 321 322 323 322 319 319 319 319 318 317 317 317 316 315 314 314 315 317 320 321 321 322 323 322 320 319 317 319 322 321 320 319 318 317 315 312 310 308 303 299 295 291 288 286 286 287 287 286 282 278 276 276 277
321 321 321 318 305 306 317 328 334 328 291 306 297 289 297 308 315 318 316 317 324 323 317 316 319 321 320 320 322 323 321 320 320 320 321 324 323 322 321 320 319 319 319 319 318 317 315 316 319 320 319 319 320 320 320 320 319 318 316 316 318 319 318 317 316 316 315 314 312 310 307 304 300 296 293 290 288 287 288 288 289 286 279 274 273 274
324 324 322 319 310 308 317 330 335 310 305 303 291 287 300 307 317 320 316 320 329 326 316 320 321 321 323 324 325 323 321 320 319 319 323 326 325 323 321 320 321 321 320 320 319 318 319 321 322 319 317 317 318 318 317 317 317 316 316 315 315 316 316 315 315 314 314 313 311 310 308 306 303 300 297 295 292 290 289 289 290 287 280 274 273 272
323 322 322 318 311 309 310 309 311 310 301 293 310 331 332 332 335 332 323 324 329 325 312 322 323 324 326 326 324 322 320 319 319 321 326 327 324 323 322 321 321 321 320 320 320 321 322 321 317 314 313 315 317 317 317 317 316 316 314 314 314 315 315 314 313 313 313 312 312 311 310 308 305 302 300 298 296 294 292 290 289 287 281 277 277 275
323 324 324 318 309 312 314 313 317 319 266 255 321 330 332 332 334 330 323 323 324 314 318 324 325 326 326 324 323 322 322 321 321 324 327 327 324 323 322 320 320 319 319 320 320 320 318 314 311 311 312 314 316 317 318 317 316 314 313 313 314 313 313 313 313 312 312 312 313 312 311 310 308 303 299 297 297 295 293 290 287 284 280 279 281 280
326 327 327 324 317 319 321 316 310 305 287 295 307 317 325 326 327 326 322 317 311 315 323 326 327 326 324 323 323 324 324 321 321 324 327 325 323 322 320 319 317 316 317 318 318 315 313 312 312 312 313 314 315 316 317 316 315 313 312 312 312 312 313 313 312 312 312 312 312 311 311 311 309 305 300 298 296 294 291 288 284 281 280 280 283 284
330 330 330 334 332 327 322 308 299 301 294 291 301 316 322 323 325 327 322 311 315 322 326 327 325 324 324 324 324 324 321 317 317 321 324 322 320 320 318 317 317 317 318 318 317 314 313 314 315 314 315 315 315 316 316 315 314 312 312 312 312 312 312 312 311 311 311 311 310 310 310 310 309 306 302 299 296 293 289 285 281 280 280 280 282 283
329 331 333 336 333 331 325 311 306 303 286 287 304 316 319 321 327 329 318 315 320 325 326 325 323 325 326 325 321 317 317 316 315 318 320 319 318 318 318 318 319 319 320 319 318 316 316 316 315 315 315 315 315 315 315 313 312 311 311 311 311 311 311 310 309 309 309 309 310 310 310 310 308 305 301 298 296 292 288 283 279 278 278 278 281 281
336 338 341 343 337 334 327 314 311 307 294 300 313 320 323 329 332 324 319 321 322 323 324 324 325 327 326 321 317 316 317 318 318 319 320 319 319 320 321 322 321 321 320 320 319 318 317 317 316 316 315 315 315 314 313 312 311 310 310 310 310 310 309 308 308 308 308 310 311 311 310 309 307 304 300 298 295 291 286 280 277 276 275 276 279 279
340 342 349 350 343 337 331 325 325 319 309 311 320 325 329 334 331 323 322 324 323 322 324 325 326 325 320 317 318 319 319 320 321 321 321 322 322 322 322 322 322 321 321 320 320 319 318 317 317 316 315 315 314 314 314 313 311 310 310 310 309 309 309 308 308 308 310 312 312 311 309 307 305 302 299 297 293 288 283 277 274 273 273 275 277 276
342 349 352 351 346 338 326 319 313 306 307 315 325 328 328 331 329 325 324 324 323 324 326 325 324 323 320 318 319 320 321 322 323 322 323 323 323 322 322 322 322 322 321 320 320 319 318 317 316 315 315 315 315 315 315 314 313 311 311 310 311 311 310 309 310 311 312 313 312 309 307 306 304 301 299 296 292 287 282 277 273 272 272 274 275 274
347 354 349 339 331 324 315 309 308 308 310 317 324 324 325 327 327 326 326 327 327 327 326 325 323 323 322 321 321 323 323 323 322 323 323 323 323 323 323 323 323 321 320 320 319 318 318 317 316 316 316 316 317 316 316 315 314 312 312 312 312 312 311 310 311 311 311 311 310 308 306 304 302 299 297 295 290 285 282 278 274 272 272 272 273 272
324 329 331 321 314 316 314 309 310 311 313 318 321 322 325 327 327 329 331 330 329 327 326 325 324 324 325 325 324 324 323 322 322 323 323 323 323 323 323 322 321 320 319 320 320 319 319 318 318 318 317 317 318 317 316 316 315 314 313 313 313 312 310 310 310 310 309 310 311 309 305 302 299 297 295 292 287 282 279 277 274 271 270 270 270 271
307 303 313 315 315 320 321 317 315 316 318 321 324 326 329 330 331 333 333 331 330 329 328 327 327 326 327 326 324 323 323 324 324 324 323 323 323 323 322 322 321 321 322 322 322 321 321 320 319 319 318 318 318 317 316 316 315 315 314 314 313 311 309 308 309 309 310 312 312 308 304 301 298 295 293 290 286 280 275 273 272 270 269 269 269 270
320 315 321 322 321 324 325 321 320 322 324 325 328 332 333 333 332 333 332 332 331 329 328 328 328 328 328 327 326 325 325 325 325 324 324 325 325 325 326 325 324 324 324 324 323 322 321 320 320 319 319 318 317 317 316 316 315 314 314 314 313 309 307 308 309 309 311 312 310 306 303 300 296 293 289 286 283 278 272 270 270 270 271 271 271 270
326 323 327 325 323 326 328 327 325 326 327 329 331 334 335 333 331 331 332 332 330 328 327 328 328 328 328 328 326 326 326 327 327 327 327 328 328 328 328 327 326 325 324 323 322 321 321 321 320 320 319 319 318 317 316 315 315 314 314 314 311 308 307 308 309 310 311 311 308 306 304 301 298 295 290 285 280 275 270 267 267 270 273 274 273 272
324 326 329 328 328 331 333 332 330 328 328 330 332 333 332 331 330 331 331 330 328 328 328 328 328 328 328 327 328 329 329 330 330 330 330 330 330 329 327 326 325 324 323 322 322 322 322 323 322 322 320 319 319 317 316 315 315 315 315 313 310 308 307 308 310 311 310 309 308 307 305 303 301 299 294 288 282 276 271 266 265 267 271 273 274 273
330 333 334 333 332 332 332 333 332 330 329 330 331 330 330 330 330 330 329 329 329 329 330 330 330 330 329 329 330 331 331 331 331 331 331 330 329 327 326 326 326 325 325 325 325 324 324 324 323 322 321 320 320 319 318 317 316 316 315 313 310 309 309 310 311 310 309 309 309 308 306 304 303 301 298 294 288 281 274 268 265 264 266 270 274 274